,,,PA_Meas_PMT16A,,PR_Meas_QMR101_102,,RH_Meas_QMH101,,SR_Meas_QMS101,,TA_Meas_QMH101,,GenWind,,GenWind,
date,time,status,PA,status,PR,status,RH,status,SR,status,TA,status,DirAvg,status,SpdAvg,
2011-05-11, 00:00:05,VALID,1005.27,VALID,0,INVALID,163.67,VALID,0,VALID,25.1813,VALID,355,VALID,0.446484,
2011-05-11, 00:01:05,VALID,1005.25,VALID,0,INVALID,163.678,VALID,0,VALID,25.2007,VALID,354,VALID,0.801562,
2011-05-11, 00:02:05,VALID,1005.22,VALID,0,INVALID,163.655,VALID,0,VALID,25.2416,VALID,329,VALID,0.654297,
2011-05-11, 00:03:05,VALID,1005.2,VALID,0,INVALID,163.639,VALID,0,VALID,25.2786,VALID,341,VALID,0.764453,
2011-05-11, 00:04:05,VALID,1005.16,VALID,0,INVALID,163.639,VALID,0,VALID,25.2592,VALID,349,VALID,0.473437,
2011-05-11, 00:05:04,VALID,1005.17,VALID,0,INVALID,163.678,VALID,0,VALID,25.2786,VALID,339,VALID,0.308984,
2011-05-11, 00:06:04,VALID,1005.12,VALID,0,INVALID,163.662,VALID,0,VALID,25.3,VALID,339,VALID,0.362109,
2011-05-11, 00:07:04,VALID,1005.09,VALID,0,INVALID,163.655,VALID,0,VALID,25.3195,VALID,339,VALID,0.244922,
2011-05-11, 00:08:04,VALID,1005.1,VALID,0,INVALID,163.617,VALID,0,VALID,25.2962,VALID,336,VALID,0.535937,
2011-05-11, 00:09:04,VALID,1005.1,VALID,0,INVALID,163.647,VALID,0,VALID,25.3779,VALID,336,VALID,0.0441406,
2011-05-11, 00:10:04,VALID,1005.07,VALID,0,INVALID,163.655,VALID,0,VALID,25.3565,VALID,336,VALID,0.419922,
2011-05-11, 00:11:04,VALID,1005.06,VALID,0,INVALID,163.632,VALID,0,VALID,25.376,VALID,342,VALID,0.452344,
2011-05-11, 00:12:04,VALID,1005.02,VALID,0,INVALID,163.662,VALID,0,VALID,25.376,VALID,354,VALID,0.274219,
2011-05-11, 00:13:04,VALID,1005.03,VALID,0,INVALID,163.67,VALID,0,VALID,25.4169,VALID,359,VALID,0.571875,
2011-05-11, 00:14:04,VALID,1004.98,VALID,0,INVALID,163.647,VALID,0,VALID,25.4169,VALID,353,VALID,0.582812,
2011-05-11, 00:15:04,VALID,1004.94,VALID,0,INVALID,163.655,VALID,0,VALID,25.4344,VALID,352,VALID,0.0515625,
2011-05-11, 00:16:04,VALID,1004.91,VALID,0,INVALID,163.639,VALID,0,VALID,25.4753,VALID,324,VALID,0.466016,
2011-05-11, 00:17:04,VALID,1004.88,VALID,0,INVALID,163.632,VALID,0,VALID,25.4753,VALID,328,VALID,0,
2011-05-11, 00:18:04,VALID,1004.85,VALID,0,INVALID,163.639,VALID,0,VALID,25.4928,VALID,329,VALID,0.490234,
2011-05-11, 00:19:04,VALID,1004.83,VALID,0,INVALID,163.647,VALID,0,VALID,25.5142,VALID,335,VALID,0.106641,
2011-05-11, 00:20:04,VALID,1004.83,VALID,0,INVALID,163.624,VALID,0,VALID,25.5337,VALID,335,VALID,0.269141,
2011-05-11, 00:21:04,VALID,1004.8,VALID,0,INVALID,163.639,VALID,0,VALID,25.5142,VALID,335,VALID,0.0945313,
2011-05-11, 00:22:04,VALID,1004.78,VALID,0,INVALID,163.617,VALID,0,VALID,25.4753,VALID,335,VALID,0,
2011-05-11, 00:23:04,VALID,1004.78,VALID,0,INVALID,163.655,VALID,0,VALID,25.4558,VALID,335,VALID,0.232422,
2011-05-11, 00:24:04,VALID,1004.77,VALID,0,INVALID,163.632,VALID,0,VALID,25.4169,VALID,335,VALID,0,
2011-05-11, 00:25:04,VALID,1004.77,VALID,0,INVALID,163.632,VALID,0,VALID,25.3779,VALID,335,VALID,0,
2011-05-11, 00:26:04,VALID,1004.76,VALID,0,INVALID,163.655,VALID,0,VALID,25.3176,VALID,335,VALID,0,
2011-05-11, 00:27:04,VALID,1004.72,VALID,0,INVALID,163.639,VALID,0,VALID,25.2981,VALID,335,VALID,0.203516,
2011-05-11, 00:28:04,VALID,1004.72,VALID,0,INVALID,163.647,VALID,0,VALID,25.2397,VALID,335,VALID,0.172266,
2011-05-11, 00:29:04,VALID,1004.69,VALID,0,INVALID,163.685,VALID,0,VALID,25.2221,VALID,335,VALID,0,
2011-05-11, 00:30:04,VALID,1004.68,VALID,0,INVALID,163.662,VALID,0,VALID,25.1618,VALID,335,VALID,0.0480469,
2011-05-11, 00:31:04,VALID,1004.66,VALID,0,INVALID,163.655,VALID,0,VALID,25.1229,VALID,335,VALID,0.00117188,
2011-05-11, 00:32:04,VALID,1004.65,VALID,0,INVALID,163.617,VALID,0,VALID,25.1053,VALID,335,VALID,0.221484,
2011-05-11, 00:33:04,VALID,1004.62,VALID,0,INVALID,163.685,VALID,0,VALID,25.045,VALID,335,VALID,0.123828,
2011-05-11, 00:34:04,VALID,1004.61,VALID,0,INVALID,163.685,VALID,0,VALID,25.0274,VALID,335,VALID,0.273047,
2011-05-11, 00:35:04,VALID,1004.59,VALID,0,INVALID,163.716,VALID,0,VALID,24.9885,VALID,335,VALID,0.405469,
2011-05-11, 00:36:04,VALID,1004.59,VALID,0,INVALID,163.678,VALID,0,VALID,24.9282,VALID,335,VALID,0.231641,
2011-05-11, 00:37:04,VALID,1004.59,VALID,0,INVALID,163.67,VALID,0,VALID,24.9106,VALID,335,VALID,0.124609,
2011-05-11, 00:38:04,VALID,1004.62,VALID,0,INVALID,163.678,VALID,0,VALID,24.8697,VALID,335,VALID,0.36875,
2011-05-11, 00:39:04,VALID,1004.61,VALID,0,INVALID,163.685,VALID,0,VALID,24.8308,VALID,335,VALID,0.2375,
2011-05-11, 00:40:04,VALID,1004.65,VALID,0,INVALID,163.67,VALID,0,VALID,24.8132,VALID,335,VALID,0.112109,
2011-05-11, 00:41:04,VALID,1004.63,VALID,0,INVALID,163.693,VALID,0,VALID,24.7724,VALID,335,VALID,0,
2011-05-11, 00:42:04,VALID,1004.66,VALID,0,INVALID,163.693,VALID,0,VALID,24.7529,VALID,335,VALID,0.00351562,
2011-05-11, 00:43:04,VALID,1004.6,VALID,0,INVALID,163.67,VALID,0,VALID,24.714,VALID,335,VALID,0,
2011-05-11, 00:44:04,VALID,1004.62,VALID,0,INVALID,163.708,VALID,0,VALID,24.6964,VALID,335,VALID,0,
2011-05-11, 00:45:04,VALID,1004.6,VALID,0,INVALID,163.701,VALID,0,VALID,24.6574,VALID,335,VALID,0,
2011-05-11, 00:46:04,VALID,1004.6,VALID,0,INVALID,163.708,VALID,0,VALID,24.5972,VALID,335,VALID,0,
2011-05-11, 00:47:04,VALID,1004.59,VALID,0,INVALID,163.708,VALID,0,VALID,24.6185,VALID,335,VALID,0,
2011-05-11, 00:48:04,VALID,1004.62,VALID,0,INVALID,163.701,VALID,0,VALID,24.5796,VALID,335,VALID,0,
2011-05-11, 00:49:04,VALID,1004.59,VALID,0,INVALID,163.716,VALID,0,VALID,24.5582,VALID,335,VALID,0.3,
2011-05-11, 00:50:04,VALID,1004.58,VALID,0,INVALID,163.693,VALID,0,VALID,24.5601,VALID,335,VALID,0.451172,
2011-05-11, 00:51:04,VALID,1004.57,VALID,0,INVALID,163.701,VALID,0,VALID,24.5388,VALID,335,VALID,0.446484,
2011-05-11, 00:52:04,VALID,1004.58,VALID,0,INVALID,163.693,VALID,0,VALID,24.5406,VALID,335,VALID,0.2,
2011-05-11, 00:53:04,VALID,1004.57,VALID,0,INVALID,163.746,VALID,0,VALID,24.5212,VALID,335,VALID,0,
2011-05-11, 00:54:04,VALID,1004.54,VALID,0,INVALID,163.731,VALID,0,VALID,24.5212,VALID,335,VALID,0,
2011-05-11, 00:55:04,VALID,1004.55,VALID,0,INVALID,163.693,VALID,0,VALID,24.4609,VALID,335,VALID,0,
2011-05-11, 00:56:04,VALID,1004.59,VALID,0,INVALID,163.739,VALID,0,VALID,24.4025,VALID,335,VALID,0,
2011-05-11, 00:57:04,VALID,1004.58,VALID,0,INVALID,163.739,VALID,0,VALID,24.3441,VALID,335,VALID,0.303125,
2011-05-11, 00:58:04,VALID,1004.58,VALID,0,INVALID,163.716,VALID,0,VALID,24.307,VALID,335,VALID,0.401172,
2011-05-11, 00:59:04,VALID,1004.59,VALID,0,INVALID,163.746,VALID,0,VALID,24.2468,VALID,335,VALID,0.588281,
2011-05-11, 01:00:04,VALID,1004.6,VALID,0,INVALID,163.746,VALID,0,VALID,24.1865,VALID,342,VALID,0.545313,
2011-05-11, 01:01:04,VALID,1004.57,VALID,0,INVALID,163.762,VALID,0,VALID,24.1476,VALID,342,VALID,0.3125,
2011-05-11, 01:02:04,VALID,1004.57,VALID,0,INVALID,163.754,VALID,0,VALID,24.1689,VALID,342,VALID,0.416016,
2011-05-11, 01:03:04,VALID,1004.57,VALID,0,INVALID,163.754,VALID,0,VALID,24.1689,VALID,342,VALID,0.286719,
2011-05-11, 01:04:04,VALID,1004.55,VALID,0,INVALID,163.716,VALID,0,VALID,24.2486,VALID,342,VALID,0.456641,
2011-05-11, 01:05:04,VALID,1004.57,VALID,0,INVALID,163.762,VALID,0,VALID,24.2468,VALID,342,VALID,0.367969,
2011-05-11, 01:06:04,VALID,1004.54,VALID,0,INVALID,163.746,VALID,0,VALID,24.1884,VALID,342,VALID,0.608203,
2011-05-11, 01:07:04,VALID,1004.55,VALID,0,INVALID,163.739,VALID,0,VALID,24.1689,VALID,342,VALID,0.670703,
2011-05-11, 01:08:04,VALID,1004.54,VALID,0,INVALID,163.716,VALID,0.100563,VALID,24.1689,VALID,344,VALID,0.635547,
2011-05-11, 01:09:04,VALID,1004.52,VALID,0,INVALID,163.746,VALID,0.100563,VALID,24.1884,VALID,344,VALID,0.281641,
2011-05-11, 01:10:04,VALID,1004.5,VALID,0,INVALID,163.739,VALID,0,VALID,24.2097,VALID,344,VALID,0.304688,
2011-05-11, 01:11:04,VALID,1004.5,VALID,0,INVALID,163.731,VALID,0,VALID,24.1671,VALID,344,VALID,0.585156,
2011-05-11, 01:12:04,VALID,1004.5,VALID,0,INVALID,163.731,VALID,0,VALID,24.2078,VALID,340,VALID,0.553906,
2011-05-11, 01:13:04,VALID,1004.49,VALID,0,INVALID,163.754,VALID,0.100563,VALID,24.2468,VALID,353,VALID,0.541406,
2011-05-11, 01:14:04,VALID,1004.5,VALID,0,INVALID,163.723,VALID,0,VALID,24.2468,VALID,358,VALID,0.664844,
2011-05-11, 01:15:04,VALID,1004.49,VALID,0,INVALID,163.716,VALID,0,VALID,24.1884,VALID,353,VALID,0.562109,
2011-05-11, 01:16:04,VALID,1004.48,VALID,0,INVALID,163.746,VALID,0,VALID,24.1476,VALID,353,VALID,0.304688,
2011-05-11, 01:17:04,VALID,1004.5,VALID,0,INVALID,163.754,VALID,0,VALID,24.1689,VALID,353,VALID,0.584375,
2011-05-11, 01:18:04,VALID,1004.46,VALID,0,INVALID,163.746,VALID,0,VALID,24.1105,VALID,350,VALID,0.552734,
2011-05-11, 01:19:04,VALID,1004.45,VALID,0,INVALID,163.739,VALID,0,VALID,24.091,VALID,352,VALID,0.562109,
2011-05-11, 01:20:04,VALID,1004.43,VALID,0,INVALID,163.746,VALID,0,VALID,24.1105,VALID,352,VALID,0.667188,
2011-05-11, 01:21:04,VALID,1004.42,VALID,0,INVALID,163.769,VALID,0,VALID,24.13,VALID,351,VALID,0.546094,
2011-05-11, 01:22:04,VALID,1004.42,VALID,0,INVALID,163.762,VALID,0,VALID,24.1689,VALID,350,VALID,0.540625,
2011-05-11, 01:23:04,VALID,1004.42,VALID,0,INVALID,163.723,VALID,0,VALID,24.1476,VALID,352,VALID,0.726563,
2011-05-11, 01:24:04,VALID,1004.39,VALID,0,INVALID,163.739,VALID,0,VALID,24.1707,VALID,356,VALID,0.634375,
2011-05-11, 01:25:04,VALID,1004.39,VALID,0,INVALID,163.708,VALID,0,VALID,24.13,VALID,356,VALID,0.335938,
2011-05-11, 01:26:04,VALID,1004.38,VALID,0,INVALID,163.739,VALID,0,VALID,24.1689,VALID,356,VALID,0,
2011-05-11, 01:27:04,VALID,1004.38,VALID,0,INVALID,163.746,VALID,0,VALID,24.13,VALID,356,VALID,0,
2011-05-11, 01:28:04,VALID,1004.36,VALID,0,INVALID,163.746,VALID,0,VALID,24.091,VALID,356,VALID,0,
2011-05-11, 01:29:04,VALID,1004.39,VALID,0,INVALID,163.739,VALID,0,VALID,24.0716,VALID,355,VALID,0,
2011-05-11, 01:30:04,VALID,1004.37,VALID,0,INVALID,163.754,VALID,0,VALID,24.0734,VALID,355,VALID,0,
2011-05-11, 01:31:04,VALID,1004.35,VALID,0,INVALID,163.754,VALID,0,VALID,24.0697,VALID,9,VALID,0,
2011-05-11, 01:32:04,VALID,1004.33,VALID,0,INVALID,163.731,VALID,0,VALID,24.1105,VALID,16,VALID,0,
2011-05-11, 01:33:04,VALID,1004.35,VALID,0,INVALID,163.762,VALID,0,VALID,24.1318,VALID,14,VALID,0,
2011-05-11, 01:34:04,VALID,1004.34,VALID,0,INVALID,163.746,VALID,0,VALID,24.13,VALID,11,VALID,0,
2011-05-11, 01:35:04,VALID,1004.33,VALID,0,INVALID,163.739,VALID,0,VALID,24.1689,VALID,3,VALID,0,
2011-05-11, 01:36:04,VALID,1004.36,VALID,0,INVALID,163.731,VALID,0,VALID,24.1884,VALID,3,VALID,0,
2011-05-11, 01:37:04,VALID,1004.36,VALID,0,INVALID,163.739,VALID,0,VALID,24.1689,VALID,1,VALID,0,
2011-05-11, 01:38:04,VALID,1004.35,VALID,0,INVALID,163.754,VALID,0,VALID,24.2291,VALID,360,VALID,0,
2011-05-11, 01:39:04,VALID,1004.34,VALID,0,INVALID,163.723,VALID,0,VALID,24.2273,VALID,360,VALID,0,
2011-05-11, 01:40:04,VALID,1004.33,VALID,0,INVALID,163.739,VALID,0,VALID,24.2468,VALID,360,VALID,0,
2011-05-11, 01:41:04,VALID,1004.31,VALID,0,INVALID,163.739,VALID,0,VALID,24.2078,VALID,360,VALID,0,
2011-05-11, 01:42:04,VALID,1004.33,VALID,0,INVALID,163.739,VALID,0,VALID,24.2273,VALID,360,VALID,0,
2011-05-11, 01:43:04,VALID,1004.31,VALID,0,INVALID,163.746,VALID,0,VALID,24.1884,VALID,1,VALID,0,
2011-05-11, 01:44:04,VALID,1004.28,VALID,0,INVALID,163.746,VALID,0,VALID,24.1689,VALID,1,VALID,0,
2011-05-11, 01:45:04,VALID,1004.29,VALID,0,INVALID,163.731,VALID,0,VALID,24.1494,VALID,13,VALID,0,
2011-05-11, 01:46:04,VALID,1004.29,VALID,0,INVALID,163.739,VALID,0,VALID,24.1494,VALID,15,VALID,0,
2011-05-11, 01:47:04,VALID,1004.3,VALID,0,INVALID,163.754,VALID,0,VALID,24.13,VALID,15,VALID,0,
2011-05-11, 01:48:04,VALID,1004.3,VALID,0,INVALID,163.723,VALID,0,VALID,24.13,VALID,15,VALID,0,
2011-05-11, 01:49:04,VALID,1004.31,VALID,0,INVALID,163.739,VALID,0,VALID,24.13,VALID,10,VALID,0,
2011-05-11, 01:50:04,VALID,1004.31,VALID,0,INVALID,163.769,VALID,0,VALID,24.1689,VALID,5,VALID,0,
2011-05-11, 01:51:04,VALID,1004.32,VALID,0,INVALID,163.762,VALID,0,VALID,24.2273,VALID,4,VALID,0,
2011-05-11, 01:52:04,VALID,1004.32,VALID,0,INVALID,163.739,VALID,0,VALID,24.2644,VALID,4,VALID,0,
2011-05-11, 01:53:04,VALID,1004.31,VALID,0,INVALID,163.723,VALID,0,VALID,24.2662,VALID,4,VALID,0,
2011-05-11, 01:54:04,VALID,1004.34,VALID,0,INVALID,163.723,VALID,0,VALID,24.2468,VALID,3,VALID,0,
2011-05-11, 01:55:04,VALID,1004.31,VALID,0,INVALID,163.716,VALID,0,VALID,24.2857,VALID,3,VALID,0,
2011-05-11, 01:56:04,VALID,1004.29,VALID,0,INVALID,163.731,VALID,0,VALID,24.3265,VALID,3,VALID,0,
2011-05-11, 01:57:04,VALID,1004.29,VALID,0,INVALID,163.716,VALID,0,VALID,24.2857,VALID,3,VALID,0,
2011-05-11, 01:58:04,VALID,1004.28,VALID,0,INVALID,163.708,VALID,0,VALID,24.2662,VALID,3,VALID,0,
2011-05-11, 01:59:04,VALID,1004.28,VALID,0,INVALID,163.731,VALID,0,VALID,24.2468,VALID,2,VALID,0.313281,
2011-05-11, 02:00:04,VALID,1004.29,VALID,0,INVALID,163.731,VALID,0,VALID,24.2468,VALID,360,VALID,0.602344,
2011-05-11, 02:01:04,VALID,1004.3,VALID,0,INVALID,163.739,VALID,0,VALID,24.2662,VALID,360,VALID,0.55,
2011-05-11, 02:02:04,VALID,1004.29,VALID,0,INVALID,163.731,VALID,0,VALID,24.2875,VALID,360,VALID,0.525391,
2011-05-11, 02:03:04,VALID,1004.3,VALID,0,INVALID,163.723,VALID,0.100563,VALID,24.3033,VALID,360,VALID,0.522266,
2011-05-11, 02:04:04,VALID,1004.31,VALID,0,INVALID,163.708,VALID,0,VALID,24.2449,VALID,360,VALID,0.429688,
2011-05-11, 02:05:04,VALID,1004.29,VALID,0,INVALID,163.739,VALID,0,VALID,24.2857,VALID,360,VALID,0.473828,
2011-05-11, 02:06:04,VALID,1004.3,VALID,0,INVALID,163.723,VALID,0,VALID,24.3052,VALID,360,VALID,0.403125,
2011-05-11, 02:07:04,VALID,1004.26,VALID,0,INVALID,163.739,VALID,0,VALID,24.3228,VALID,360,VALID,0.448828,
2011-05-11, 02:08:04,VALID,1004.29,VALID,0,INVALID,163.701,VALID,0.100563,VALID,24.3052,VALID,360,VALID,0.458594,
2011-05-11, 02:09:04,VALID,1004.29,VALID,0,INVALID,163.723,VALID,0,VALID,24.2644,VALID,360,VALID,0.358594,
2011-05-11, 02:10:04,VALID,1004.28,VALID,0,INVALID,163.723,VALID,0,VALID,24.2662,VALID,360,VALID,0.206641,
2011-05-11, 02:11:04,VALID,1004.26,VALID,0,INVALID,163.716,VALID,0,VALID,24.2273,VALID,360,VALID,0.384766,
2011-05-11, 02:12:04,VALID,1004.25,VALID,0,INVALID,163.762,VALID,0.100563,VALID,24.2078,VALID,360,VALID,0.389453,
2011-05-11, 02:13:04,VALID,1004.24,VALID,0,INVALID,163.731,VALID,0.100563,VALID,24.1652,VALID,360,VALID,0.075,
2011-05-11, 02:14:04,VALID,1004.25,VALID,0,INVALID,163.716,VALID,0,VALID,24.1671,VALID,360,VALID,0.155078,
2011-05-11, 02:15:04,VALID,1004.25,VALID,0,INVALID,163.746,VALID,0,VALID,24.1884,VALID,360,VALID,0.200781,
2011-05-11, 02:16:04,VALID,1004.23,VALID,0,INVALID,163.723,VALID,0,VALID,24.2078,VALID,360,VALID,0,
2011-05-11, 02:17:04,VALID,1004.24,VALID,0,INVALID,163.739,VALID,0.100563,VALID,24.2273,VALID,360,VALID,0.344531,
2011-05-11, 02:18:04,VALID,1004.25,VALID,0,INVALID,163.739,VALID,0,VALID,24.1689,VALID,360,VALID,0.541406,
2011-05-11, 02:19:04,VALID,1004.22,VALID,0,INVALID,163.739,VALID,0,VALID,24.13,VALID,4,VALID,0.789844,
2011-05-11, 02:20:04,VALID,1004.23,VALID,0,INVALID,163.716,VALID,0,VALID,24.13,VALID,4,VALID,0.730469,
2011-05-11, 02:21:04,VALID,1004.23,VALID,0,INVALID,163.739,VALID,0.100563,VALID,24.13,VALID,4,VALID,0.703906,
2011-05-11, 02:22:04,VALID,1004.21,VALID,0,INVALID,163.769,VALID,0,VALID,24.091,VALID,4,VALID,0.657812,
2011-05-11, 02:23:04,VALID,1004.19,VALID,0,INVALID,163.739,VALID,0,VALID,24.0716,VALID,4,VALID,0.676562,
2011-05-11, 02:24:04,VALID,1004.2,VALID,0,INVALID,163.762,VALID,0,VALID,24.0716,VALID,19,VALID,0.728125,
2011-05-11, 02:25:04,VALID,1004.19,VALID,0,INVALID,163.739,VALID,0,VALID,24.091,VALID,19,VALID,0.651172,
2011-05-11, 02:26:04,VALID,1004.17,VALID,0,INVALID,163.746,VALID,0,VALID,24.0308,VALID,19,VALID,0.720703,
2011-05-11, 02:27:04,VALID,1004.16,VALID,0,INVALID,163.739,VALID,0.100563,VALID,23.9919,VALID,19,VALID,0.603906,
2011-05-11, 02:28:04,VALID,1004.15,VALID,0,INVALID,163.746,VALID,0,VALID,24.0326,VALID,19,VALID,0.580078,
2011-05-11, 02:29:04,VALID,1004.14,VALID,0,INVALID,163.754,VALID,0,VALID,24.0132,VALID,19,VALID,0.43125,
2011-05-11, 02:30:04,VALID,1004.14,VALID,0,INVALID,163.754,VALID,0.100563,VALID,24.0132,VALID,19,VALID,0.501953,
2011-05-11, 02:31:04,VALID,1004.11,VALID,0,INVALID,163.739,VALID,0,VALID,24.13,VALID,19,VALID,0.339063,
2011-05-11, 02:32:04,VALID,1004.12,VALID,0,INVALID,163.731,VALID,0,VALID,24.1281,VALID,19,VALID,0.46875,
2011-05-11, 02:33:04,VALID,1004.12,VALID,0,INVALID,163.754,VALID,0,VALID,24.1105,VALID,19,VALID,0.488281,
2011-05-11, 02:34:04,VALID,1004.11,VALID,0,INVALID,163.746,VALID,0.100563,VALID,24.13,VALID,19,VALID,0.640234,
2011-05-11, 02:35:04,VALID,1004.13,VALID,0,INVALID,163.746,VALID,0,VALID,24.1105,VALID,19,VALID,0.715234,
2011-05-11, 02:36:04,VALID,1004.11,VALID,0,INVALID,163.723,VALID,0,VALID,24.0503,VALID,19,VALID,0.622266,
2011-05-11, 02:37:04,VALID,1004.11,VALID,0,INVALID,163.762,VALID,0,VALID,24.0716,VALID,19,VALID,0.567187,
2011-05-11, 02:38:04,VALID,1004.09,VALID,0,INVALID,163.739,VALID,0,VALID,24.0521,VALID,19,VALID,0.544922,
2011-05-11, 02:39:04,VALID,1004.08,VALID,0,INVALID,163.792,VALID,0,VALID,24.0521,VALID,19,VALID,0.654297,
2011-05-11, 02:40:04,VALID,1004.1,VALID,0,INVALID,163.762,VALID,0,VALID,24.091,VALID,19,VALID,0.766797,
2011-05-11, 02:41:04,VALID,1004.07,VALID,0,INVALID,163.739,VALID,0.100563,VALID,24.0716,VALID,19,VALID,0.68125,
2011-05-11, 02:42:04,VALID,1004.08,VALID,0,INVALID,163.731,VALID,0,VALID,24.0521,VALID,19,VALID,0.842578,
2011-05-11, 02:43:04,VALID,1004.07,VALID,0,INVALID,163.777,VALID,0.100563,VALID,23.9919,VALID,19,VALID,0.838281,
2011-05-11, 02:44:04,VALID,1004.06,VALID,0,INVALID,163.769,VALID,0,VALID,23.9548,VALID,19,VALID,0.731641,
2011-05-11, 02:45:04,VALID,1004.09,VALID,0,INVALID,163.746,VALID,0,VALID,23.9742,VALID,19,VALID,0.646094,
2011-05-11, 02:46:04,VALID,1004.08,VALID,0,INVALID,163.762,VALID,0,VALID,23.9742,VALID,19,VALID,0.648047,
2011-05-11, 02:47:04,VALID,1004.05,VALID,0,INVALID,163.762,VALID,0,VALID,24.0345,VALID,19,VALID,0.45,
2011-05-11, 02:48:04,VALID,1004.07,VALID,0,INVALID,163.769,VALID,0,VALID,23.9937,VALID,18,VALID,0.419141,
2011-05-11, 02:49:04,VALID,1004.05,VALID,0,INVALID,163.739,VALID,0,VALID,23.9937,VALID,18,VALID,0.557422,
2011-05-11, 02:50:04,VALID,1004.03,VALID,0,INVALID,163.746,VALID,0,VALID,23.9548,VALID,18,VALID,0.690625,
2011-05-11, 02:51:04,VALID,1004.01,VALID,0,INVALID,163.762,VALID,0,VALID,23.9761,VALID,18,VALID,0.647656,
2011-05-11, 02:52:04,VALID,1004,VALID,0,INVALID,163.754,VALID,0,VALID,23.9353,VALID,18,VALID,0.3375,
2011-05-11, 02:53:04,VALID,1004.01,VALID,0,INVALID,163.739,VALID,0,VALID,23.9371,VALID,18,VALID,0.383984,
2011-05-11, 02:54:04,VALID,1003.97,VALID,0,INVALID,163.746,VALID,0,VALID,23.9566,VALID,18,VALID,0.432031,
2011-05-11, 02:55:04,VALID,1003.99,VALID,0,INVALID,163.739,VALID,0,VALID,23.9548,VALID,18,VALID,0.384375,
2011-05-11, 02:56:04,VALID,1003.99,VALID,0,INVALID,163.723,VALID,0,VALID,24.0734,VALID,18,VALID,0,
2011-05-11, 02:57:04,VALID,1003.97,VALID,0,INVALID,163.754,VALID,0,VALID,24.1105,VALID,18,VALID,0.0449219,
2011-05-11, 02:58:04,VALID,1004,VALID,0,INVALID,163.731,VALID,0,VALID,24.1494,VALID,15,VALID,0.367188,
2011-05-11, 02:59:04,VALID,1004.01,VALID,0,INVALID,163.723,VALID,0,VALID,24.1494,VALID,13,VALID,0.486719,
2011-05-11, 03:00:04,VALID,1003.97,VALID,0,INVALID,163.754,VALID,0,VALID,24.1123,VALID,10,VALID,0.407031,
2011-05-11, 03:01:04,VALID,1003.97,VALID,0,INVALID,163.731,VALID,0,VALID,24.0929,VALID,10,VALID,0.332422,
2011-05-11, 03:02:04,VALID,1003.97,VALID,0,INVALID,163.762,VALID,0,VALID,24.0716,VALID,10,VALID,0.210938,
2011-05-11, 03:03:04,VALID,1003.95,VALID,0,INVALID,163.731,VALID,0,VALID,24.0716,VALID,10,VALID,0.370313,
2011-05-11, 03:04:04,VALID,1003.96,VALID,0,INVALID,163.739,VALID,0,VALID,24.0521,VALID,10,VALID,0.257031,
2011-05-11, 03:05:04,VALID,1003.93,VALID,0,INVALID,163.731,VALID,0,VALID,24.0734,VALID,10,VALID,0.302734,
2011-05-11, 03:06:04,VALID,1003.96,VALID,0,INVALID,163.746,VALID,0,VALID,24.0929,VALID,10,VALID,0.253906,
2011-05-11, 03:07:04,VALID,1003.93,VALID,0,INVALID,163.762,VALID,0,VALID,24.0521,VALID,10,VALID,0.420312,
2011-05-11, 03:08:04,VALID,1003.96,VALID,0,INVALID,163.754,VALID,0,VALID,24.0521,VALID,10,VALID,0.313281,
2011-05-11, 03:09:04,VALID,1003.94,VALID,0,INVALID,163.716,VALID,0,VALID,24.0539,VALID,10,VALID,0.246875,
2011-05-11, 03:10:04,VALID,1003.93,VALID,0,INVALID,163.762,VALID,0,VALID,24.0539,VALID,10,VALID,0.476953,
2011-05-11, 03:11:04,VALID,1003.94,VALID,0,INVALID,163.754,VALID,0,VALID,23.9937,VALID,10,VALID,0.549609,
2011-05-11, 03:12:04,VALID,1003.93,VALID,0,INVALID,163.731,VALID,0,VALID,23.9761,VALID,10,VALID,0.530859,
2011-05-11, 03:13:04,VALID,1003.91,VALID,0,INVALID,163.746,VALID,0,VALID,23.9566,VALID,9,VALID,0.580469,
2011-05-11, 03:14:04,VALID,1003.9,VALID,0,INVALID,163.784,VALID,0,VALID,23.9177,VALID,8,VALID,0.629687,
2011-05-11, 03:15:04,VALID,1003.91,VALID,0,INVALID,163.769,VALID,0,VALID,23.8964,VALID,8,VALID,0.730078,
2011-05-11, 03:16:04,VALID,1003.91,VALID,0,INVALID,163.754,VALID,0,VALID,23.8964,VALID,8,VALID,0.584766,
2011-05-11, 03:17:04,VALID,1003.89,VALID,0,INVALID,163.769,VALID,0,VALID,23.8964,VALID,8,VALID,0.597656,
2011-05-11, 03:18:04,VALID,1003.9,VALID,0,INVALID,163.746,VALID,0,VALID,23.9353,VALID,7,VALID,0.599219,
2011-05-11, 03:19:04,VALID,1003.88,VALID,0,INVALID,163.762,VALID,0,VALID,23.9937,VALID,5,VALID,0.661328,
2011-05-11, 03:20:04,VALID,1003.89,VALID,0,INVALID,163.754,VALID,0,VALID,23.9761,VALID,5,VALID,0.585938,
2011-05-11, 03:21:04,VALID,1003.84,VALID,0,INVALID,163.746,VALID,0,VALID,23.9955,VALID,6,VALID,0.395703,
2011-05-11, 03:22:04,VALID,1003.84,VALID,0,INVALID,163.754,VALID,0,VALID,23.9761,VALID,5,VALID,0.440234,
2011-05-11, 03:23:04,VALID,1003.85,VALID,0,INVALID,163.739,VALID,0,VALID,23.9353,VALID,6,VALID,0.379297,
2011-05-11, 03:24:04,VALID,1003.82,VALID,0,INVALID,163.754,VALID,0,VALID,23.9566,VALID,6,VALID,0.454688,
2011-05-11, 03:25:04,VALID,1003.8,VALID,0,INVALID,163.769,VALID,0,VALID,23.9371,VALID,6,VALID,0.332812,
2011-05-11, 03:26:04,VALID,1003.78,VALID,0,INVALID,163.769,VALID,0,VALID,23.9353,VALID,6,VALID,0.182031,
2011-05-11, 03:27:04,VALID,1003.74,VALID,0,INVALID,163.739,VALID,0,VALID,23.9159,VALID,5,VALID,0.386719,
2011-05-11, 03:28:04,VALID,1003.75,VALID,0,INVALID,163.754,VALID,0,VALID,23.9159,VALID,5,VALID,0.503906,
2011-05-11, 03:29:04,VALID,1003.73,VALID,0,INVALID,163.762,VALID,0,VALID,23.9159,VALID,6,VALID,0.616016,
2011-05-11, 03:30:04,VALID,1003.7,VALID,0,INVALID,163.754,VALID,0,VALID,23.9371,VALID,6,VALID,0.4625,
2011-05-11, 03:31:04,VALID,1003.72,VALID,0,INVALID,163.754,VALID,0,VALID,23.9371,VALID,6,VALID,0.569531,
2011-05-11, 03:32:04,VALID,1003.73,VALID,0,INVALID,163.762,VALID,0,VALID,23.9566,VALID,4,VALID,0.633594,
2011-05-11, 03:33:04,VALID,1003.74,VALID,0,INVALID,163.777,VALID,0,VALID,23.9566,VALID,4,VALID,0.622266,
2011-05-11, 03:34:04,VALID,1003.73,VALID,0,INVALID,163.754,VALID,0,VALID,23.9371,VALID,4,VALID,0.701563,
2011-05-11, 03:35:04,VALID,1003.73,VALID,0,INVALID,163.777,VALID,0,VALID,23.9159,VALID,4,VALID,0.70625,
2011-05-11, 03:36:04,VALID,1003.76,VALID,0,INVALID,163.754,VALID,0,VALID,23.9371,VALID,3,VALID,0.659375,
2011-05-11, 03:37:04,VALID,1003.76,VALID,0,INVALID,163.746,VALID,0,VALID,23.8964,VALID,3,VALID,0.494141,
2011-05-11, 03:38:04,VALID,1003.78,VALID,0,INVALID,163.777,VALID,0,VALID,23.9353,VALID,2,VALID,0.463672,
2011-05-11, 03:39:04,VALID,1003.77,VALID,0,INVALID,163.723,VALID,0,VALID,23.9761,VALID,351,VALID,0.450391,
2011-05-11, 03:40:04,VALID,1003.75,VALID,0,INVALID,163.746,VALID,0,VALID,24.0132,VALID,348,VALID,0.428516,
2011-05-11, 03:41:04,VALID,1003.77,VALID,0,INVALID,163.739,VALID,0,VALID,24.015,VALID,348,VALID,0.376953,
2011-05-11, 03:42:04,VALID,1003.77,VALID,0,INVALID,163.762,VALID,0,VALID,24.0345,VALID,349,VALID,0.443359,
2011-05-11, 03:43:04,VALID,1003.73,VALID,0,INVALID,163.769,VALID,0,VALID,24.0539,VALID,349,VALID,0.349219,
2011-05-11, 03:44:04,VALID,1003.77,VALID,0,INVALID,163.754,VALID,0,VALID,24.0345,VALID,349,VALID,0.25,